This is the latest recevied weather packets stored in our database for station/object KE4LOJ. If no packets are shown the sender has not sent any weather packets the latest 10 day(s).
| Time | Temp. | Humidity | Pressure | Rain* | Wind** | Luminosity | Snow |
|---|---|---|---|---|---|---|---|
| 1777557822 | 24.44° C | 79% | 1012.8 hPa | 0 mm | - | 211 W/m² | - |
| 1777557518 | 24.44° C | 80% | 1012.8 hPa | 0 mm | - | 156 W/m² | - |
| 1777557215 | 24.44° C | 81% | 1012.9 hPa | 0 mm | - | 103 W/m² | - |
| 1777556911 | 24.44° C | 81% | 1012.8 hPa | 0 mm | - | 114 W/m² | - |
| 1777556606 | 24.44° C | 80% | 1012.9 hPa | 0 mm | - | 106 W/m² | - |
| 1777556301 | 24.44° C | 80% | 1012.8 hPa | 0 mm | - | 113 W/m² | - |
| 1777555998 | 24.44° C | 81% | 1013 hPa | 0 mm | - | 133 W/m² | - |
| 1777555698 | 23.89° C | 81% | 1012.9 hPa | 0 mm | - | 125 W/m² | - |
| 1777555395 | 23.89° C | 82% | 1012.8 hPa | 0 mm | - | 128 W/m² | - |
| 1777555091 | 23.89° C | 82% | 1013.1 hPa | 0 mm | - | 105 W/m² | - |
| 1777554789 | 23.89° C | 83% | 1013.1 hPa | 0 mm | - | 94 W/m² | - |
| 1777554486 | 23.89° C | 83% | 1013.2 hPa | 0 mm | - | 80 W/m² | - |
| 1777554182 | 23.89° C | 83% | 1013 hPa | 0 mm | - | 89 W/m² | - |
| 1777553879 | 23.89° C | 83% | 1013 hPa | 0 mm | - | 105 W/m² | - |
| 1777553575 | 23.89° C | 85% | 1013.1 hPa | 0 mm | - | 166 W/m² | - |
| 1777553271 | 23.33° C | 86% | 1013.2 hPa | 0 mm | - | 132 W/m² | - |
| 1777552967 | 23.33° C | 87% | 1013.1 hPa | 0 mm | - | 95 W/m² | - |
| 1777552662 | 22.78° C | 88% | 1013.3 hPa | 0 mm | - | 101 W/m² | - |
| 1777552359 | 22.78° C | 88% | 1013.1 hPa | 0 mm | - | 80 W/m² | - |
| 1777552056 | 22.78° C | 88% | 1013.1 hPa | 0 mm | - | 71 W/m² | - |
| 1777551753 | 22.78° C | 89% | 1013.2 hPa | 0 mm | - | 57 W/m² | - |
| 1777551450 | 22.78° C | 89% | 1013 hPa | 0 mm | - | 46 W/m² | - |
| 1777551147 | 22.78° C | 90% | 1013 hPa | 0 mm | - | 46 W/m² | - |
| 1777550845 | 22.78° C | 90% | 1013 hPa | 0 mm | - | 60 W/m² | - |
| 1777550541 | 22.78° C | 90% | 1012.8 hPa | 0 mm | - | 62 W/m² | - |
* Rain latest hour (hover to see other rain measurements)
** Current wind speed in m/s (hover to see current wind gust speed)